STARLINK-36556, 67642

Orbit data source: Space-Track

STARLINK-36556, 67642 is a payload satellite owned by SpaceX/Seattle (US) in LEO that was launched on Fri, 30 Jan 2026 UTC via an FALCON 9 launch vehicle from the Air Force Eastern Test Range (AFETR). Payload-class satellites include a variety of spacecraft equipped with specific instruments for various scientific and technological missions. These include communications satellites like Starlink; space stations such as the ISS; scientific satellites like the Hubble; Earth observation satellites from companies like Planet Labs, Umbra, and HawkEye 360; GPS; miniature CubeSats for education and research; and military/defense satellites.

Loading next visibility...
Identifier
67642, 2026-020AB
Orbit
LEO
Country
Flag of USUS
Related business
Manufacturer
SpaceX/Seattle
Mission
Operational spacecraft
Bus & Motor
STARLINK V2MO, Unknown motor
Mass
575 kg wet, ~530 kg dry
Launch date (UTC)
2026-01-30 (2 months ago)
Launch vehicle
FALCON 9
Launch site
Air Force Eastern Test Range (AFETR)
Object type
Payload
Rocket body
Debris
Shape & HBR
Unknown shape, 17.7 m
Radar Cross Section
RCS unknown

Expand to show TLE details & history
Last TLE update: 5 hours ago

TLE from 5 hours ago
0 STARLINK-36556
1 67642U 26020AB  26104.87271593  .00009151  00000-0  34159-3 0  9991
2 67642  42.9997 295.7493 0001623 270.1666  89.8999 15.27586401 11649
Epoch: 2026-04-14T20:56Z
TLE epoch observation values (Epoch: 2026-04-14T20:56:42.656Z)
Latitude
-0.00006°
Longitude
138.52878°
Altitude
482.804 km
Speed
7.626 km/s
True Right ascension
19h 42m 59s
True Declination
0° 00' 00"
Sunlit
Object was in daylight at epoch
Visualization orbit readout
Latitude
Unknown
Longitude
Unknown
Altitude
Unknown
Speed
Unknown
Apparent Right ascension
Unknown
Apparent Declination
Unknown
Sunlit
N/A
Visualization observer readout
Local Sidereal Time
08:06:47
Azimuth
Unknown
Elevation
Unknown
Doppler factor
Unknown
Orbital elements
Apogee altitude
486.089 km
Perigee altitude
483.861 km
Semi-major axis
6,863.112 km
Eccentricity
0.00016
Inclination
42.9997°
RAAN
295.7493°
Arg. of periapsis
270.1666°
True anomaly
89.9185°
Mean anomaly
89.8999°
Eccentric anomaly
89.9092°
Mean motion
3.81735 °/min
Orbital period
94.31 mins
BSTAR
0.00034159
Loading maneuver chart data...
Computing Atmospheric mass density...
Loading historical data...
Loading historical data...
Loading historical data...
Loading historical data...
Loading historical data...
Loading historical data...
Loading historical data...

Documentation

Showing up to 5 results
|